sat.trackr.live / text

‹ back to catalog

STARLINK-4728

NORAD 53793 · 2022-111W

PAYLOAD ACTIVE UNKNOWN

§ Identity

Operator
Country
US
Launch date
2022-09-11
Launch site
AFETR
Launch vehicle
Mass (kg)
RCS (m²)

Purposes: comms

External: N2YO · Heavens-Above · Gunter

§ Orbital elements

Epoch: 2026-05-25T02:17:26.550816Z

Period
95.44 min
Inclination
53.2147°
Eccentricity
0.0001654
Mean motion
15.08827200 rev/d
Perigee alt
538.6 km
Apogee alt
540.9 km
Semi-major
6,917.9 km
B*
1.4860e-4
RAAN
290.9168°
Arg perigee
94.5001°
Mean anomaly
265.6180°
Rev number
20,522

§ Raw data

STARLINK-47281 53793U 22111W   26145.09544619  .00002077  00000+0  14860-3 0  99972 53793  53.2147 290.9168 0001654  94.5001 265.6180 15.08827200205223

JSON: /api/v1/satellites/53793 · /tle

For live sub-satellite position, see the globe view (requires WebGL).

§ Visibility from observer

Set your observer location to see the next 7 days of passes ≥ 10°. The values pass through the URL so the page stays shareable.

No JS? Fill the form by hand. The geolocation button needs JavaScript.